NOAA NWS Hourly Roundups by Site

Regional Weather Roundup for Green Bay, WI

To Select Another Site Choose from List

Select Site:  

000
ASUS43 KGRB 240511
RWRGRB

NORTH-CENTRAL AND NORTHEAST WISCONSIN REGIONAL WEATHER ROUNDUP
NATIONAL WEATHER SERVICE GREEN BAY WI
1100 PM CST THU JAN 23 2020

WIZ005-009-010>012-018-019-240600-
NORTH CENTRAL WISCONSIN

CITY           SKY/WX    TMP DP  RH WIND       PRES   REMARKS
IRONWOOD       LGT SNOW  28  28 100 CALM      30.09R FOG
MANITOWISH WTR CLOUDY    29  29 100 NE6       30.05F
ARBOR VITAE    CLOUDY    32  29  89 E3        30.04S
EAGLE RIVER    CLOUDY    30  29  98 E6        30.04F
LAND O LAKES   FLURRIES  30  28  93 E3        30.07S
RHINELANDER    CLOUDY    29  27  92 NE7       30.03F
PHILLIPS       CLOUDY    29  29 100 NE5       30.04S
ANTIGO         CLOUDY    29  29 100 E9        30.03S FOG
TOMAHAWK       LGT SNOW  29  27  94 CALM      30.04S
MERRILL        MIX PCPN  30  30 100 CALM      30.04S
$$

WIZ013-073-240600-
NORTHEAST WISCONSIN

CITY           SKY/WX    TMP DP  RH WIND       PRES   REMARKS
IRON MOUNTAIN  LGT SNOW  31  28  89 E5        30.07S FOG
MARINETTE      LGT SNOW  34  32  93 E7        30.10F FOG
OCONTO         CLOUDY    32  32 100 E3        30.08F
$$

WIZ017-030-035>037-045-240600-
CENTRAL WISCONSIN

CITY           SKY/WX    TMP DP  RH WIND       PRES   REMARKS
MEDFORD        MIX PCPN  28  27  99 NE6       30.01F
WAUSAU         CLOUDY    30  28  92 E5        30.01S
MOSINEE        CLOUDY    30  28  93 NE6       30.03S FOG
MARSHFIELD     CLOUDY    29  27  92 E7        30.00S FOG
WISC RAPIDS    CLOUDY    30  28  92 E7        30.03S FOG
STEVENS POINT  CLOUDY    28  28 100 NE5       30.03S FOG
WAUPACA        LGT SNOW  33  31  93 E5        30.04S
SHAWANO        LGT SNOW  34  33  96 E6        30.06S
CLINTONVILLE   LGT SNOW  32  30  93 E6        30.05S
WAUTOMA        CLOUDY    31  29  92 NE5       30.03S FOG
$$

WIZ038-039-048-051-240600-
FOX VALLEY

CITY           SKY/WX    TMP DP  RH WIND       PRES   REMARKS
NWS GREEN BAY  CLOUDY    34  31  88 E7        30.06F FOG
APPLETON       LGT SNOW  32  32 100 E5        30.02S
OSHKOSH        CLOUDY    32  32 100 E5        30.03S FOG
FOND DU LAC    CLOUDY    34  31  88 E5        30.03S FOG
$$

WIZ022-050-052-240600-
EAST CENTRAL WISCONSIN

CITY           SKY/WX    TMP DP  RH WIND       PRES   REMARKS
EPHRAIM        LGT SNOW  32  31  99 SE6       30.09S
WASHINGTON ISL LGT SNOW  32  32 100 SE7       30.11S
STURGEON BAY   LGT RAIN  33  32  96 E7        30.09F FOG
MANITOWOC      LGT RAIN  34  33  96 E10       30.07S FOG
SHEBOYGAN      LGT SNOW  33  32  96 SE5       30.04S FOG
$$

LMZ563-521-522-541>543-240600-
LAKESHORE

STATION/POSITION TIME  TEMP    WIND        PRES    VSBY  WAVE
                       AIR SEA DIR/SP/G                  HT/PER
                 (UTC) (F)     (DEG/KT/KT) (MB)    (MI)  (FT/S)
SHEBOYGAN LKSHOR 0500   35     150/ 11/ 12   N/A
KEWAUNEE LKSHORE 0424   34     130/ 10/ 12 1018.0
NORTHPORT PIER   0440   32     110/  8/ 10 1019.6S
SISTER BAY LKSHO 0427   33     120/  3/  6   N/A
MENOMINEE LKSHOR 0424   32 35   60/  5/  6 1018.9
$$



 

View Past Reports for Green Bay, WI.

Products Courtesy of NOAA-NWS
NWS Information Parsing Script by Ken True at Saratoga Weather - Script by SE Lincoln Weather.